sat.trackr.live / text

‹ back to catalog

STARLINK-32735

NORAD 63044 · 2025-034R

PAYLOAD ACTIVE UNKNOWN

§ Identity

Operator
Country
US
Launch date
2025-02-18
Launch site
AFETR
Launch vehicle
Mass (kg)
RCS (m²)

Purposes: comms

External: N2YO · Heavens-Above · Gunter

§ Orbital elements

Epoch: 2026-09-21T21:03:58.260960Z

Period
93.85 min
Inclination
53.1591°
Eccentricity
0.0000988
Mean motion
15.34399232 rev/d
Perigee alt
462.0 km
Apogee alt
463.4 km
Semi-major
6,840.8 km
B*
3.3562e-4
RAAN
75.4121°
Arg perigee
88.5269°
Mean anomaly
271.5846°
Rev number
8,900

§ Raw data

STARLINK-327351 63044U 25034R   26264.87775765  .00010980  00000+0  33562-3 0  99922 63044  53.1591  75.4121 0000988  88.5269 271.5846 15.34399232 89007

JSON: /api/v1/satellites/63044 · /tle

For live sub-satellite position, see the globe view (requires WebGL).

§ Visibility from observer

Set your observer location to see the next 7 days of passes ≥ 10°. The values pass through the URL so the page stays shareable.

No JS? Fill the form by hand. The geolocation button needs JavaScript.